When you browse on this site, cookies collect data to enhance your experience and personalize the content and advertising you see.
Visit our Privacy Policy to learn more. By continuing to use the site, you agree to this use of cookies and data.
  • In Deutschland
  • Länderverzeichnis
  • Für 7 Tage
  • Wassertemperatur
  • Wetterkarte
  • Widgets
  • user-avatar
    Anmelden

    Stündliche Wetter Brest

    Heute, 25 Mai, Montag

    Zeit Temperatur Niederschläge Wind Luftdruck Luftfeuchtigkeit
    00:00 +8°C° 0 mm 2 m/S 753 mmHg 92%
    01:00 +8°C° 0 mm 2 m/S 753 mmHg 92%
    02:00 +7°C° 0 mm 2 m/S 753 mmHg 92%
    03:00 +7°C° 0 mm 2 m/S 753 mmHg 92%
    04:00 +9°C° 0 mm 1 m/S 753 mmHg 92%
    05:00 +9°C° 0 mm 1 m/S 753 mmHg 91%
    06:00 +10°C° 0 mm 1 m/S 753 mmHg 89%
    07:00 +10°C° 0 mm 1 m/S 753 mmHg 86%
    08:00 +11°C° 0 mm 1 m/S 753 mmHg 84%
    09:00 +12°C° 0.2 mm 1 m/S 753 mmHg 79%
    10:00 +13°C° 0.2 mm 1 m/S 754 mmHg 75%
    11:00 +14°C° 0.2 mm 1 m/S 754 mmHg 71%
    12:00 +15°C° 0.4 mm 1 m/S 753 mmHg 67%
    13:00 +16°C° 0.4 mm 1 m/S 753 mmHg 63%
    14:00 +18°C° 0.4 mm 1 m/S 753 mmHg 60%
    15:00 +18°C° 0.4 mm 1 m/S 753 mmHg 60%
    16:00 +17°C° 0.4 mm 2 m/S 753 mmHg 60%
    17:00 +17°C° 0.4 mm 2 m/S 753 mmHg 61%
    18:00 +16°C° 0.2 mm 2 m/S 753 mmHg 68%
    19:00 +14°C° 0.2 mm 2 m/S 753 mmHg 75%
    20:00 +13°C° 0.2 mm 2 m/S 753 mmHg 83%
    21:00 +12°C° 0 mm 2 m/S 754 mmHg 85%
    22:00 +10°C° 0 mm 2 m/S 754 mmHg 87%
    23:00 +10°C° 0 mm 2 m/S 754 mmHg 89%

    Morgen, 26 Mai, Dienstag

    Zeit Temperatur Niederschläge Wind Luftdruck Luftfeuchtigkeit
    00:00 +9°C° 0 mm 2 m/S 754 mmHg 90%
    01:00 +9°C° 0 mm 2 m/S 755 mmHg 91%
    02:00 +8°C° 0 mm 2 m/S 755 mmHg 92%
    03:00 +8°C° 0 mm 2 m/S 755 mmHg 92%
    04:00 +8°C° 0 mm 2 m/S 755 mmHg 93%
    05:00 +8°C° 0 mm 2 m/S 756 mmHg 93%
    06:00 +10°C° 0 mm 2 m/S 756 mmHg 89%
    07:00 +11°C° 0 mm 3 m/S 756 mmHg 84%
    08:00 +13°C° 0 mm 3 m/S 756 mmHg 79%
    09:00 +14°C° 0.2 mm 3 m/S 756 mmHg 75%
    10:00 +17°C° 0.2 mm 4 m/S 756 mmHg 70%
    11:00 +18°C° 0.2 mm 4 m/S 756 mmHg 66%
    12:00 +18°C° 0.7 mm 4 m/S 756 mmHg 65%
    13:00 +17°C° 0.7 mm 5 m/S 756 mmHg 64%
    14:00 +19°C° 0.7 mm 5 m/S 756 mmHg 64%
    15:00 +17°C° 0.6 mm 5 m/S 756 mmHg 66%
    16:00 +18°C° 0.6 mm 4 m/S 756 mmHg 68%
    17:00 +18°C° 0.6 mm 4 m/S 756 mmHg 71%
    18:00 +17°C° 0.4 mm 3 m/S 756 mmHg 76%
    19:00 +14°C° 0.4 mm 3 m/S 756 mmHg 81%
    20:00 +13°C° 0.4 mm 3 m/S 756 mmHg 87%
    21:00 +13°C° 0.1 mm 2 m/S 756 mmHg 88%
    22:00 +13°C° 0.1 mm 2 m/S 757 mmHg 89%
    23:00 +12°C° 0.1 mm 2 m/S 757 mmHg 90%

    übermorgen, 27 Mai, Mittwoch

    Zeit Temperatur Niederschläge Wind Luftdruck Luftfeuchtigkeit
    00:00 +10°C° 0 mm 2 m/S 757 mmHg 92%
    01:00 +10°C° 0 mm 2 m/S 756 mmHg 93%
    02:00 +10°C° 0 mm 2 m/S 756 mmHg 94%
    03:00 +10°C° 0 mm 3 m/S 756 mmHg 94%
    04:00 +9°C° 0 mm 3 m/S 756 mmHg 95%
    05:00 +9°C° 0 mm 3 m/S 756 mmHg 95%
    06:00 +11°C° 0 mm 3 m/S 756 mmHg 92%
    07:00 +12°C° 0 mm 3 m/S 756 mmHg 88%
    08:00 +14°C° 0 mm 3 m/S 757 mmHg 84%
    09:00 +16°C° 0.4 mm 3 m/S 756 mmHg 77%
    10:00 +17°C° 0.4 mm 4 m/S 756 mmHg 70%
    11:00 +19°C° 0.4 mm 4 m/S 756 mmHg 63%
    12:00 +19°C° 0.2 mm 4 m/S 755 mmHg 59%
    13:00 +20°C° 0.2 mm 4 m/S 755 mmHg 56%
    14:00 +20°C° 0.2 mm 5 m/S 755 mmHg 52%
    15:00 +20°C° 0.1 mm 5 m/S 755 mmHg 53%
    16:00 +20°C° 0.1 mm 5 m/S 754 mmHg 54%
    17:00 +20°C° 0.1 mm 5 m/S 754 mmHg 55%
    18:00 +18°C° 0.1 mm 4 m/S 754 mmHg 62%
    19:00 +16°C° 0.1 mm 3 m/S 754 mmHg 70%
    20:00 +14°C° 0.1 mm 3 m/S 754 mmHg 77%
    21:00 +13°C° 0 mm 3 m/S 754 mmHg 80%
    22:00 +12°C° 0 mm 3 m/S 754 mmHg 83%
    23:00 +11°C° 0 mm 3 m/S 754 mmHg 86%

    28 Mai, Donnerstag

    Zeit Temperatur Niederschläge Wind Luftdruck Luftfeuchtigkeit
    00:00 +10°C° 0 mm 2 m/S 754 mmHg 89%
    01:00 +10°C° 0 mm 2 m/S 753 mmHg 91%
    02:00 +9°C° 0 mm 2 m/S 753 mmHg 93%
    03:00 +9°C° 0 mm 2 m/S 753 mmHg 94%
    04:00 +9°C° 0 mm 2 m/S 753 mmHg 94%
    05:00 +9°C° 0 mm 2 m/S 752 mmHg 94%
    06:00 +10°C° 0 mm 2 m/S 752 mmHg 89%
    07:00 +12°C° 0 mm 2 m/S 752 mmHg 85%
    08:00 +14°C° 0 mm 2 m/S 752 mmHg 80%
    09:00 +14°C° 0.1 mm 2 m/S 752 mmHg 78%
    10:00 +14°C° 0.1 mm 2 m/S 752 mmHg 76%
    11:00 +14°C° 0.1 mm 3 m/S 752 mmHg 73%
    12:00 +16°C° 0.4 mm 3 m/S 751 mmHg 71%
    13:00 +17°C° 0.4 mm 3 m/S 751 mmHg 69%
    14:00 +17°C° 0.4 mm 4 m/S 750 mmHg 67%
    15:00 +17°C° 0.4 mm 4 m/S 750 mmHg 66%
    16:00 +17°C° 0.4 mm 4 m/S 750 mmHg 64%
    17:00 +17°C° 0.4 mm 4 m/S 750 mmHg 63%
    18:00 +15°C° 0 mm 4 m/S 750 mmHg 69%
    19:00 +14°C° 0 mm 3 m/S 749 mmHg 74%
    20:00 +12°C° 0 mm 3 m/S 749 mmHg 80%
    21:00 +11°C° 0 mm 4 m/S 749 mmHg 84%
    22:00 +10°C° 0 mm 4 m/S 749 mmHg 88%
    23:00 +8°C° 0 mm 4 m/S 749 mmHg 93%

    29 Mai, Freitag

    Zeit Temperatur Niederschläge Wind Luftdruck Luftfeuchtigkeit
    00:00 +8°C° 0 mm 4 m/S 749 mmHg 94%
    01:00 +7°C° 0 mm 4 m/S 749 mmHg 95%
    02:00 +6°C° 0 mm 4 m/S 748 mmHg 97%
    03:00 +7°C° 0 mm 4 m/S 748 mmHg 95%
    04:00 +7°C° 0 mm 4 m/S 748 mmHg 94%
    05:00 +8°C° 0 mm 4 m/S 748 mmHg 92%
    06:00 +8°C° 0 mm 4 m/S 748 mmHg 89%
    07:00 +10°C° 0 mm 4 m/S 748 mmHg 87%
    08:00 +11°C° 0 mm 4 m/S 748 mmHg 84%
    09:00 +11°C° 0.1 mm 4 m/S 748 mmHg 83%
    10:00 +12°C° 0.1 mm 4 m/S 748 mmHg 82%
    11:00 +12°C° 0.1 mm 4 m/S 748 mmHg 81%
    12:00 +13°C° 0.7 mm 4 m/S 748 mmHg 81%
    13:00 +13°C° 0.7 mm 4 m/S 748 mmHg 81%
    14:00 +13°C° 0.7 mm 4 m/S 748 mmHg 81%
    15:00 +13°C° 0.9 mm 4 m/S 748 mmHg 82%
    16:00 +13°C° 0.9 mm 4 m/S 747 mmHg 84%
    17:00 +13°C° 0.9 mm 4 m/S 747 mmHg 85%
    18:00 +12°C° 0.1 mm 3 m/S 747 mmHg 87%
    19:00 +11°C° 0.1 mm 3 m/S 747 mmHg 90%
    20:00 +10°C° 0.1 mm 2 m/S 747 mmHg 92%
    21:00 +10°C° 0 mm 2 m/S 747 mmHg 93%
    22:00 +9°C° 0 mm 2 m/S 747 mmHg 95%
    23:00 +8°C° 0 mm 2 m/S 747 mmHg 96%

    30 Mai, Samstag

    Zeit Temperatur Niederschläge Wind Luftdruck Luftfeuchtigkeit
    00:00 +8°C° 0 mm 2 m/S 747 mmHg 96%
    01:00 +8°C° 0 mm 2 m/S 747 mmHg 96%
    02:00 +8°C° 0 mm 2 m/S 747 mmHg 96%
    03:00 +8°C° 0 mm 2 m/S 747 mmHg 96%
    04:00 +7°C° 0 mm 2 m/S 747 mmHg 96%
    05:00 +7°C° 0 mm 2 m/S 747 mmHg 97%
    06:00 +9°C° 0 mm 3 m/S 748 mmHg 92%
    07:00 +10°C° 0 mm 3 m/S 748 mmHg 88%
    08:00 +11°C° 0 mm 3 m/S 748 mmHg 84%
    09:00 +12°C° 0.3 mm 4 m/S 748 mmHg 80%
    10:00 +13°C° 0.3 mm 4 m/S 748 mmHg 76%
    11:00 +14°C° 0.3 mm 4 m/S 748 mmHg 72%
    12:00 +15°C° 0.4 mm 5 m/S 748 mmHg 70%
    13:00 +15°C° 0.4 mm 5 m/S 748 mmHg 67%
    14:00 +16°C° 0.4 mm 5 m/S 748 mmHg 65%
    15:00 +16°C° 0.2 mm 5 m/S 748 mmHg 66%
    16:00 +16°C° 0.2 mm 5 m/S 748 mmHg 66%
    17:00 +17°C° 0.2 mm 4 m/S 748 mmHg 67%
    18:00 +15°C° 0.1 mm 4 m/S 748 mmHg 73%
    19:00 +14°C° 0.1 mm 3 m/S 748 mmHg 78%
    20:00 +13°C° 0.1 mm 2 m/S 748 mmHg 84%
    21:00 +12°C° 0 mm 2 m/S 748 mmHg 87%
    22:00 +10°C° 0 mm 2 m/S 748 mmHg 90%
    23:00 +9°C° 0 mm 2 m/S 748 mmHg 92%
    Mehr zeigen